Flag for Norway Weather past 2 weeks in Stavanger, Norway

Now
54 °F

Rain showers. Partly cloudy.


Feels Like: 48 °F
Forecast: 51 / 56 °F
Wind: 22 mph from Southwest

Location: Stavanger / Sola

Current Time: Oct 26, 2014 at 7:11:36 AM

Latest Report: Oct 26, 2014 at 6:20 AM


Visibility: N/A

Pressure: 29.68 "Hg

Humidity: 82%

Dew point: 48 °F

Location of StavangerLocation

Historic Weather in Stavanger — Graph

°F

Stavanger temperature yesterday

Maximum temperature yesterday: 54 °F (at 12:20 PM)
Minimum temperature yesterday: 48 °F (at 5:20 AM)
Average temperature yesterday: 52 °F

Past Weeks' High & Low Weather Summary

 TemperatureHumidityPressure
High59 °F (Oct 18, 2:50 PM)100% (Oct 12, 6:20 AM)29.98 "Hg (Oct 12, 6:20 AM)
Low34 °F (Oct 17, 4:50 AM)47% (Oct 16, 1:20 PM)29.15 "Hg (Oct 21, 4:20 PM)
Average51 °F85%29.74 "Hg
* Reported Oct 11 6:20 AM — Oct 26 5:50 AM, Stavanger, Weather by CustomWeather, © 2014

Note: Actual official high and low records may vary slightly from our data, if they occured in-between our weather recording intervals... More about our weather records

Advertising

Stavanger weather history for previous 24 hours

 ConditionsComfort  
Time TempWeatherWind HumidityBarometerVisibility
5:50 AM
Oct 26
55 °FPartly cloudy.21 mph77%29.68 "HgN/A
4:50 AM54 °FPartly cloudy.20 mph82%29.68 "HgN/A
3:50 AM54 °FPartly cloudy.20 mph88%29.71 "HgN/A
2:50 AM54 °FPartly cloudy.17 mph88%29.71 "HgN/A
2:50 AM54 °FPartly cloudy.18 mph88%29.71 "HgN/A
2:20 AM54 °FPassing clouds.17 mph88%29.71 "HgN/A
1:50 AM54 °FPassing clouds.17 mph88%29.74 "HgN/A
1:20 AM54 °FPartly cloudy.18 mph88%29.71 "HgN/A
12:50 AM54 °FPartly cloudy.17 mph88%29.71 "HgN/A
12:20 AM54 °FPartly cloudy.17 mph88%29.74 "HgN/A
11:50 PM
Oct 25
54 °FPartly cloudy.16 mph88%29.71 "HgN/A
11:20 PM54 °FPartly cloudy.17 mph88%29.74 "HgN/A
10:50 PM54 °FScattered showers. Partly cloudy.16 mph88%29.74 "HgN/A
10:20 PM54 °FScattered showers. Partly cloudy.17 mph88%29.71 "HgN/A
9:50 PM54 °FScattered showers. Partly cloudy.18 mph88%29.71 "HgN/A
9:20 PM54 °FPartly cloudy.17 mph88%29.71 "Hg6 mi
8:50 PM54 °FScattered showers. Partly cloudy.16 mph88%29.71 "HgN/A
8:20 PM54 °FScattered showers. Partly cloudy.18 mph88%29.71 "Hg6 mi
7:50 PM54 °FRain. Passing clouds.17 mph88%29.74 "Hg4 mi
7:20 PM54 °FPartly cloudy.16 mph88%29.74 "Hg4 mi
6:50 PM52 °FDrizzle. Broken clouds.16 mph94%29.71 "Hg4 mi
6:20 PM52 °FDrizzle. Broken clouds.21 mph94%29.71 "Hg4 mi
5:50 PM54 °FSprinkles. Broken clouds.17 mph88%29.71 "HgN/A
5:20 PM52 °FSprinkles. Broken clouds.18 mph88%29.71 "HgN/A
4:50 PM54 °FScattered showers. Broken clouds.17 mph82%29.74 "HgN/A
4:20 PM54 °FScattered showers. Broken clouds.18 mph82%29.74 "HgN/A
3:50 PM54 °FScattered showers. Broken clouds.18 mph82%29.74 "HgN/A
3:20 PM54 °FScattered showers. Broken clouds.20 mph82%29.74 "HgN/A
2:50 PM54 °FRain showers. Broken clouds.18 mph82%29.74 "HgN/A
2:20 PM54 °FBroken clouds.21 mph82%29.74 "HgN/A
1:50 PM54 °FPartly sunny.20 mph82%29.77 "HgN/A
1:20 PM54 °FBroken clouds.18 mph82%29.77 "HgN/A
12:50 PM52 °FPartly sunny.15 mph82%29.77 "HgN/A
12:20 PM54 °FPartly sunny.15 mph82%29.77 "HgN/A
11:50 AM52 °FBroken clouds.13 mph88%29.77 "HgN/A
11:20 AM52 °FLight rain. Broken clouds.10 mph88%29.77 "HgN/A
10:50 AM52 °FPartly sunny.9 mph88%29.77 "HgN/A
10:20 AM50 °FBroken clouds.7 mph88%29.77 "HgN/A
9:50 AM50 °FPartly sunny.6 mph88%29.77 "HgN/A
9:20 AM50 °FPassing clouds.7 mph88%29.77 "HgN/A
8:50 AM48 °FPassing clouds.7 mph94%29.74 "HgN/A
8:20 AM48 °FPassing clouds.8 mph94%29.74 "HgN/A
7:50 AM48 °FPassing clouds.8 mph94%29.74 "HgN/A
7:20 AM48 °FPassing clouds.7 mph94%29.74 "HgN/A
Weather by CustomWeather, © 2014

See weather overviewHow to use our weather pages